This is the latest recevied weather packets stored in our database for station/object WA0LM. If no packets are shown the sender has not sent any weather packets the latest 10 day(s).
| Time | Temp. | Humidity | Pressure | Rain* | Wind** | Luminosity | Snow |
|---|---|---|---|---|---|---|---|
| 1777445235 | 3.89° C | 67% | 1017 hPa | 0 mm | - | 0 W/m² | - |
| 1777444930 | 3.89° C | 70% | 1017.2 hPa | 0 mm | - | 0 W/m² | - |
| 1777444626 | 3.89° C | 67% | 1017 hPa | 0 mm | - | 0 W/m² | - |
| 1777444323 | 3.89° C | 66% | 1017 hPa | 0 mm | - | 0 W/m² | - |
| 1777444020 | 3.89° C | 67% | 1017 hPa | 0 mm | - | 0 W/m² | - |
| 1777443716 | 3.89° C | 66% | 1017 hPa | 0 mm | - | 0 W/m² | - |
| 1777443416 | 3.89° C | 67% | 1017.1 hPa | 0 mm | - | 0 W/m² | - |
| 1777443114 | 3.89° C | 65% | 1017 hPa | 0 mm | - | 0 W/m² | - |
| 1777442811 | 3.89° C | 68% | 1017 hPa | 0 mm | - | 0 W/m² | - |
| 1777442507 | 3.89° C | 66% | 1017.1 hPa | 0 mm | - | 0 W/m² | - |
| 1777442202 | 3.89° C | 68% | 1017 hPa | 0 mm | - | 0 W/m² | - |
| 1777441898 | 3.89° C | 65% | 1017.1 hPa | 0 mm | - | 0 W/m² | - |
| 1777441594 | 3.89° C | 66% | 1017 hPa | 0 mm | - | 0 W/m² | - |
| 1777441290 | 3.89° C | 65% | 1017 hPa | 0 mm | - | 0 W/m² | - |
| 1777440990 | 3.89° C | 64% | 1017.1 hPa | 0 mm | - | 0 W/m² | - |
| 1777440687 | 3.89° C | 64% | 1016.8 hPa | 0 mm | - | 0 W/m² | - |
| 1777440382 | 3.89° C | 64% | 1016.9 hPa | 0 mm | - | 0 W/m² | - |
| 1777440079 | 3.89° C | 63% | 1016.9 hPa | 0 mm | - | 0 W/m² | - |
| 1777439774 | 3.89° C | 63% | 1016.9 hPa | 0 mm | - | 0 W/m² | - |
| 1777439471 | 4.44° C | 64% | 1016.8 hPa | 0 mm | - | 0 W/m² | - |
| 1777439166 | 4.44° C | 63% | 1016.8 hPa | 0 mm | - | 0 W/m² | - |
| 1777438863 | 4.44° C | 63% | 1016.9 hPa | 0 mm | - | 0 W/m² | - |
| 1777438560 | 4.44° C | 60% | 1016.9 hPa | 0 mm | - | 0 W/m² | - |
| 1777438256 | 4.44° C | 63% | 1016.8 hPa | 0 mm | - | 0 W/m² | - |
| 1777437951 | 4.44° C | 61% | 1016.9 hPa | 0 mm | - | 0 W/m² | - |
* Rain latest hour (hover to see other rain measurements)
** Current wind speed in m/s (hover to see current wind gust speed)